www.pogodaiklimat.ru
ПОГОДА в Кламат-Фолсе
Время
и дата
08:53 26.05
09:53 26.05
10:53 26.05
11:53 26.05
12:53 26.05
13:53 26.05
14:53 26.05
15:53 26.05
16:53 26.05
17:53 26.05
18:53 26.05
19:53 26.05
20:53 26.05
21:53 26.05
22:53 26.05
23:53 26.05
00:53 27.05
01:53 27.05
02:53 27.05
03:53 27.05
04:53 27.05
05:53 27.05
06:53 27.05
07:53 27.05
08:53 27.05
09:53 27.05
10:53 27.05
11:53 27.05
12:53 27.05
13:53 27.05
14:53 27.05
15:53 27.05
16:53 27.05
17:53 27.05
18:53 27.05
19:53 27.05
20:53 27.05
21:53 27.05
22:53 27.05
23:53 27.05
00:53 28.05
01:53 28.05
02:53 28.05
03:53 28.05
04:53 28.05
05:53 28.05
06:53 28.05
07:53 28.05
Ветер
(напр.,м/с)
Видим. Явления Облачность Т
(С)
Тd
(С)
f
(%)
Тe
(С)
Тes
(С)
Комфортность P
(гПа)
Po
(гПа)
Тmin
(С)
Tmax
(С)
R
(мм)
R24
(мм)
S
(см)
штиль 0 16 км ясно +12.8 +3.3 52 +13 +23 1018.1 877.5
Ю 2 16 км ясно +15.0 +2.8 44 +15 +26 опасность
простуды
1018.2 877.5 -1.7 +15.0
Ю 3 16 км ясно +16.7 -0.6 31 +17 +29 опасность
простуды
1017.8 877.2
нст 2 16 км ясно +17.8 +2.2 35 +18 +37 опасность
простуды
1017.3 876.9
нст 3 16 км ясно +20.0 +2.2 31 +21 +37 комфорт 1016.9 876.6
СЗ 3 16 км ясно +21.1 +1.1 26 +21 +36 комфорт 1016.7 876.6
нст 2 16 км ясно +21.7 +1.1 25 +21 +37 комфорт 1016.5 876.3
Ю 4 16 км ясно +22.8 +2.2 26 +22 +31 комфорт 1015.9 876.0 +15.0 +22.8
штиль 0 16 км ясно +22.2 +2.8 28 +22 +33 комфорт 1015.9 875.7
СЗ 6 16 км ясно +20.6 +3.3 32 +21 +23 комфорт 1016.0 876.0
СЗ 6 16 км ясно +18.9 +2.2 33 +19 +19 1015.7 876.3
СЗ 4 16 км ясно +13.9 +3.3 49 +13 +13 1016.5 876.6
З 2 16 км ясно +14.4 +3.3 47 +14 +14 1016.9 877.2
З 2 16 км ясно +10.6 +3.3 61 +10 +10 1017.5 877.5 +8.9 +22.8
штиль 0 16 км ясно +8.9 +2.8 66 +8 +8 1017.7 877.8
штиль 0 16 км ясно +5.6 +2.2 79 +5 +5 1018.0 877.8
С 2 16 км ясно +5.0 +1.7 79 +2 +2 1017.7 877.8
штиль 0 16 км ясно +6.1 +1.7 73 +5 +5 1017.5 877.8
штиль 0 16 км ясно +3.9 +1.7 86 +3 +3 1017.7 877.8
штиль 0 16 км ясно +2.8 +0.6 85 +2 +2 1017.6 877.8 +2.2 +11.1
штиль 0 16 км ясно +2.2 -0.6 82 +1 +1 1018.0 877.8
штиль 0 16 км ясно +7.2 +3.9 80 +6 +7 1018.0 878.3
штиль 0 16 км ясно +11.7 +6.1 68 +11 +13 1017.8 878.3
СЗ 3 16 км ясно +15.0 +6.7 58 +14 +17 1018.2 878.3
нст 2 16 км ясно +17.8 +6.1 46 +18 +26 1017.4 878.1
СЗ 3 16 км ясно +20.0 +6.7 42 +21 +31 комфорт 1017.2 878.1 +2.2 +20.0
нст 3 16 км ясно +21.1 +6.7 39 +22 +35 комфорт 1016.9 877.5
ЮВ 3 16 км ясно +22.8 +5.0 31 +23 +38 комфорт 1016.4 876.9
нст 2 16 км ясно +23.3 +4.4 29 +23 +43 комфорт 1015.9 876.6
Ю 5 16 км ясно +24.4 +3.9 26 +24 +34 комфорт 1014.8 876.0
З 4 16 км ясно +25.6 +4.4 25 +25 +36 комфорт 1014.4 875.4
СЗ 5 16 км ясно +25.6 +4.4 25 +25 +31 комфорт 1014.2 875.1 +19.4 +26.1
СЗ 7 16 км 2/0 2850 m
[Ac]
+24.4 +4.4 27 +24 +26 комфорт 1014.1 874.8
СЗ 8 16 км ясно +23.3 +6.1 33 +24 +25 комфорт 1013.5 874.8
СЗ 6 16 км ясно +21.7 +5.6 35 +22 +23 комфорт 1013.5 875.1
СЗ 5 16 км ясно +18.3 +6.1 45 +18 +18 1014.1 875.7
З 4 16 км ясно +16.1 +7.2 56 +15 +15 1014.7 876.0
З 5 16 км ясно +15.0 +7.2 60 +14 +14 1014.8 876.3 +14.4 +26.1
СЗ 4 16 км ясно +14.4 +6.7 60 +13 +13 1015.2 876.6
штиль 0 16 км ясно +11.1 +5.6 69 +11 +11 1015.4 876.6
штиль 0 16 км ясно +8.3 +5.0 80 +8 +8 1015.4 876.6
штиль 0 16 км ясно +7.8 +4.4 79 +7 +7 1015.5 876.6
штиль 0 16 км ясно +7.2 +5.0 86 +6 +6 1015.2 876.6
штиль 0 16 км ясно +5.6 +3.3 85 +5 +5 1015.5 876.6 +4.4 +15.0
штиль 0 16 км ясно +5.0 +3.3 89 +4 +4 1015.8 876.6
штиль 0 16 км ясно +10.0 +6.7 80 +9 +9 1015.6 876.9
штиль 0 16 км ясно +12.8 +7.2 69 +12 +14 1015.8 877.2
СЗ 2 16 км ясно +16.1 +8.3 60 +16 +20 1015.6 876.9
Местоположение метеостанции Klamath Falls International Airport: широта 42.1469 долгота -121.7242 высота над уровнем моря 1247 м.
В архиве по умолчанию представлена погода в Кламат-Фолсе за последние 1-2 суток. Обновление информации о фактической погоде в базе происходит ежечасно! Архивные данные за месяц целиком и за предыдущие месяцы Вы можете получить, выбрав интересующий диапазон дат из раскрывающегося списка и нажав кнопку "Ввод!".
Внимание! Архив погоды МЕТАР в базе сайта по станциям, не включенным в климатический монитор, хранится не более 60 дней. Нет смысла пытаться выбрать более раннюю дату.
*Определитесь, кто Вы:
Внимание! Время в таблицах - местное (без учета летнего времени). Для получения всемирного времени необходимо вычесть поправку, которая равна -8 ч.
Смотрите также архив погоды в соседних городах и на ближайших метеорологических станциях:
Партнеры нашего сайта:      
Пояснения к столбцам:
  • Ветер - указаны скорость ветра в м/с - средняя за 10 мин, порывы в срок и между сроками (в фигурных скобках) и направление, откуда дует ветер: С - северный,
  • СВ - северо-восточный, В - восточный, ЮВ - юго-восточный, Ю - южный, ЮЗ - юго-западный, З - западный, СЗ - северо-западный.
  • Видимость - горизонтальная дальность видимости в метрах или километрах. При видимости от 1 до 10 км при отсутствии осадков обычно наблюдается дымка, при ухудшении видимости до 1 км и менее - туман. В сухую погоду видимость может ухудшаться дымом, пылью или мглою.
  • Явления - указаны атмосферные явления, наблюдавшиеся в срок или в последний час перед сроком; фигурными скобками обозначены явления, наблюдавшиеся между сроками (за 1-3 часа до срока); квадратными скобками обозначены град или гололедные отложения с указанием их диаметра в мм.
  • Облачность - указаны через наклонную черту общая и нижняя облачность в баллах и высота нижней границы облаков в метрах; квадратными скобками обозначены формы облаков: Ci - перистые, Cs - перисто-слоистые, Cc - перисто-кучевые, Ac - высококучевые, As - высокослоистые, Sc - слоисто-кучевые, Ns - слоисто-дождевые, Cu - кучевые, Cb - кучево-дождевые. Подробнее классификацию облаков см. в Атласе облаков (PDF).
  • T - Температура воздуха - температура, измеренная на высоте 2 м над землей.
  • Td - Температура точки росы - температура, при понижении до которой содержащийся в воздухе водяной пар достигнет насыщения.
  • f - Относительная влажность воздуха - влажноcть воздуха, измеренная на высоте 2 м над землей.
  • Te - Эффективная температура - температура, которую ощущает одетый по сезону человек в тени. Характеристика душности погоды. При расчете учитывается влияние влажности воздуха и скорости ветра на теплоощущения человека.
  • Tes - Эффективная температура на солнце - температура, которую ощущает человек, с поправкой на солнечный нагрев. Характеристика знойности погоды. Зависит от высоты солнца над горизонтом, облачности и скорости ветра. Ночью, в пасмурную погоду, а также при ветре 12 м/с и более поправка равна нулю.
  • P - Атмосферное давление - приведенное к уровню моря атмосферное давление.
  • Po - Атмосферное давление - измеренное на уровне метеостанции атмосферное давление.
  • Tmin - Минимальная температура - минимум температуры воздуха на высоте 2 м над землей.
  • Tmax - Максимальная температура - максимум температуры воздуха на высоте 2 м над землей.
  • R - Количество осадков - Количество выпавших осадков за период времени, мм. При наведении курсора мыши на число - период времени, за который выпало указанное количество осадков.
  • R24 - Количество осадков - Количество выпавших осадков за 24 часа, мм.
  • S - Снежный покров - Высота снежного покрова, см. При наведении курсора мыши на число - состояние снежного покрова и степень покрытия местности в баллах.